Wind_Speed
22 23 23 21 19 20 21 20 18 16 17 21 25 25 24 23 23 23 23 21 21 20 18 15 14 14 17 16 13 14 15 14 14 15 14 12 11 11 10 10 9 9 9 10 9 9 9 10 10 11 12 12 13 13 12 13 14 15 16 17 18 21 24 21 16 12 15 22 23 21 21 22 20 20 19 18 17 15 15 17 19 22 24 24 22
22 23 23 21 21 22 23 21 20 22 23 22 23 23 22 21 21 22 22 21 20 19 16 14 14 15 16 14 12 15 15 13 14 15 12 11 12 9 7 10 10 7 9 11 10 9 10 12 12 11 11 11 12 12 12 11 10 11 15 19 18 19 21 20 20 18 17 22 24 22 24 23 21 21 19 17 18 16 16 19 21 23 24 23 22
20 20 20 20 21 24 24 22 23 25 24 22 22 21 21 21 21 22 23 22 20 19 16 16 16 16 16 14 14 14 13 13 14 12 11 12 11 7 7 11 11 8 11 12 10 9 10 12 13 12 12 12 11 10 9 5 5 9 15 19 18 16 17 19 22 22 21 22 24 25 27 24 22 21 19 17 17 17 17 20 23 25 24 23 22
19 20 21 21 23 25 26 25 26 25 23 23 24 23 23 22 21 22 23 22 20 19 17 17 18 17 16 15 14 13 12 13 12 10 11 12 10 9 11 13 10 9 13 14 11 10 10 12 14 13 14 13 8 7 5 1 4 12 14 13 12 12 16 21 23 24 24 23 24 27 29 27 23 22 22 20 17 16 17 20 24 26 25 24 22
20 21 22 22 23 23 25 27 27 25 22 24 27 26 25 22 20 22 22 20 20 20 17 16 17 17 16 16 15 14 13 13 10 10 12 11 9 11 12 10 7 10 14 13 11 11 11 13 14 13 13 10 5 4 3 3 7 12 12 11 12 12 15 19 21 23 25 25 25 26 27 27 25 23 24 23 21 19 18 19 23 26 26 25 24
19 20 20 22 22 22 24 26 26 23 22 25 28 27 24 22 20 22 21 20 21 20 17 16 16 16 16 15 15 15 14 12 10 11 12 11 10 11 10 9 10 14 15 12 11 12 12 12 12 12 10 7 3 3 4 4 6 8 7 8 10 12 12 12 14 17 21 24 25 25 26 25 24 26 27 25 24 23 22 21 23 25 26 26 26
12 15 18 19 20 21 24 24 22 21 24 28 27 24 22 21 20 20 20 19 20 19 17 16 15 15 16 15 14 15 14 12 12 13 12 12 11 11 11 11 12 14 14 11 11 14 14 12 10 9 7 5 3 3 4 5 6 7 7 6 7 8 7 7 9 14 19 20 21 23 25 23 22 26 29 28 25 24 24 25 26 27 28 28 28
6 12 16 16 16 18 21 21 18 19 24 25 23 22 21 20 20 20 19 19 19 19 18 17 15 14 15 16 16 16 15 14 15 13 12 12 13 12 12 12 12 13 13 12 12 14 13 12 9 7 6 5 3 2 4 5 4 5 7 7 7 7 5 5 7 10 15 16 16 19 23 23 21 23 28 28 24 23 26 28 29 29 30 30 29
7 9 13 14 14 15 16 16 16 19 22 22 21 21 20 19 20 21 21 20 19 19 18 16 15 14 16 18 17 16 15 15 15 14 13 14 13 12 12 11 11 12 13 13 13 14 14 13 10 8 7 6 4 2 2 2 2 3 4 5 6 7 5 4 6 6 7 8 9 11 16 20 17 18 25 29 28 28 28 29 29 29 30 32 32
5 8 11 12 14 15 14 15 18 19 20 20 22 22 19 18 19 21 21 18 18 21 19 14 14 16 18 20 18 16 15 14 14 15 15 14 13 12 11 10 9 10 12 13 13 13 14 13 11 11 9 8 7 7 5 4 1 1 1 2 3 4 5 4 3 3 3 3 3 4 7 13 13 12 16 22 25 26 26 29 30 30 28 28 29
8 11 16 16 17 16 15 16 17 18 18 18 20 20 19 19 21 22 20 17 18 21 17 14 17 20 21 21 20 19 18 16 16 16 16 14 13 12 11 11 10 9 10 12 12 11 10 8 7 6 5 5 4 5 5 5 5 4 4 4 3 3 3 2 1 1 0 0 0 1 2 5 9 11 11 13 14 16 20 26 28 28 27 24 23
20 20 20 18 19 17 15 16 16 17 19 19 18 18 19 22 23 21 19 18 20 20 18 20 22 22 21 21 20 19 17 16 16 16 16 15 13 12 12 12 12 11 9 9 9 9 7 5 4 1 2 4 3 2 3 3 4 5 5 5 5 4 4 4 3 2 3 3 3 4 3 2 7 12 14 16 17 15 15 19 21 21 22 24 25
24 22 19 17 19 18 15 14 15 17 20 21 21 21 23 24 23 22 20 20 20 20 21 23 22 20 19 18 18 18 15 13 13 13 14 14 13 12 11 11 11 11 10 7 6 5 4 4 3 1 3 4 4 5 5 5 4 4 6 7 5 3 3 4 4 4 5 6 7 8 7 6 8 9 9 12 16 16 16 18 21 21 18 21 25
26 24 21 17 16 18 16 14 15 18 21 22 23 24 26 26 25 24 23 22 22 22 22 22 20 19 17 16 15 15 14 12 10 10 10 10 10 9 9 10 9 9 9 7 5 3 2 2 2 1 2 4 5 6 6 6 5 5 8 8 6 4 4 5 5 5 6 7 9 10 10 10 11 11 10 11 13 14 15 16 19 20 20 20 21
29 27 23 19 15 15 15 15 16 17 19 22 23 23 25 26 26 25 25 23 21 21 20 20 19 16 14 13 11 12 11 10 8 8 8 8 7 5 6 9 10 9 7 6 5 4 2 3 3 2 2 3 4 6 6 6 7 7 7 6 5 6 6 7 7 8 8 9 11 12 12 12 12 12 12 13 12 12 13 14 15 16 16 16 16
28 28 26 22 18 15 15 15 15 15 16 18 19 19 19 21 21 21 21 19 16 15 15 16 16 14 12 10 9 9 9 7 6 6 6 5 4 3 5 7 9 8 7 6 5 4 4 4 4 3 1 4 5 5 6 6 7 7 8 8 8 8 8 8 9 9 10 11 12 12 12 12 12 13 14 14 14 12 12 13 15 13 11 10 11
26 26 26 25 22 19 17 17 16 15 15 15 17 17 17 17 17 15 15 13 10 10 12 14 15 15 14 12 10 9 9 7 6 6 5 4 4 5 7 9 10 10 8 7 6 5 6 5 4 3 1 5 5 4 5 5 5 6 7 9 9 10 10 10 11 11 11 11 11 11 12 13 14 14 15 16 15 13 12 14 15 15 13 12 11
24 25 25 24 25 24 23 21 19 17 16 15 16 17 16 16 16 17 18 17 15 13 14 15 16 15 15 14 12 11 12 11 9 7 7 7 6 7 9 10 12 13 11 9 8 6 6 5 3 3 1 2 2 2 3 3 3 4 5 8 10 11 11 12 13 13 11 10 10 10 10 11 12 13 12 12 13 12 13 14 15 16 16 17 16
22 24 24 24 25 25 25 25 23 21 19 17 15 15 14 15 16 19 21 21 19 17 16 17 17 17 17 16 14 14 15 14 12 10 9 9 8 8 9 10 12 13 11 8 7 5 4 4 4 3 2 2 2 2 3 4 5 5 5 7 10 11 11 11 11 11 10 9 10 10 9 9 9 9 9 10 12 12 12 13 14 15 15 16 15
21 22 24 25 25 25 25 25 25 23 21 19 17 15 15 17 19 21 22 22 21 19 18 18 20 19 18 18 17 16 16 16 15 13 11 11 10 9 9 11 12 13 11 9 7 6 6 6 5 5 4 4 5 6 6 6 6 6 6 7 8 10 10 10 9 8 9 9 9 9 8 7 6 6 7 9 12 13 14 15 17 17 16 15 14
20 22 24 24 25 24 24 24 24 24 22 21 20 18 17 18 19 20 21 21 20 20 19 20 21 21 19 18 19 18 17 16 16 15 14 14 13 12 13 14 13 13 14 12 10 9 9 8 7 6 6 6 7 8 8 8 8 8 8 8 8 9 11 11 11 10 10 10 10 10 10 9 7 5 5 8 11 11 12 15 16 17 16 15 15
21 21 22 23 23 23 23 23 23 24 23 23 22 20 17 17 17 17 18 19 19 19 19 19 20 22 21 19 18 18 17 16 16 15 15 14 14 14 15 15 12 11 12 12 9 9 9 8 8 8 8 8 9 10 11 11 11 11 10 9 9 10 11 12 13 14 13 12 11 12 12 12 11 8 7 9 10 9 10 11 11 11 11 9 9
22 23 23 23 23 22 22 22 22 23 23 23 23 22 20 18 16 16 17 19 20 20 20 20 21 22 21 20 19 18 17 16 16 15 14 13 13 12 13 13 11 9 9 9 8 8 8 8 9 9 10 11 11 12 12 12 12 11 11 11 11 11 11 11 11 12 12 11 12 13 13 12 12 11 11 12 11 9 9 9 8 8 7 5 5
20 22 22 23 23 22 21 20 20 21 20 21 23 24 23 23 21 19 18 18 18 17 17 19 20 20 21 20 18 17 16 16 16 16 15 13 12 11 11 11 10 8 7 7 7 8 8 9 10 10 10 10 11 11 11 11 11 11 11 11 12 11 11 10 8 8 8 9 11 13 15 13 12 13 13 13 11 9 9 7 6 5 5 5 7
19 19 19 20 20 20 20 20 19 19 19 19 21 23 24 25 25 24 22 21 19 18 16 15 16 17 19 18 17 16 15 14 15 15 14 13 12 12 11 10 9 7 7 8 8 8 9 9 9 8 9 9 9 9 9 9 10 10 11 11 12 11 10 9 8 9 9 11 12 13 13 12 10 9 10 12 12 10 10 9 8 7 8 9 10
19 18 17 16 15 15 18 19 18 18 18 18 20 21 22 23 24 24 23 23 22 22 21 20 19 19 18 16 15 14 14 13 14 14 13 12 11 12 11 11 10 8 8 8 7 7 7 7 7 8 9 9 10 10 10 10 10 10 11 13 13 13 12 12 12 12 13 13 14 14 12 10 6 4 7 12 12 10 9 8 7 7 7 7 7
17 17 17 16 14 14 16 17 18 18 19 20 20 20 20 21 22 22 21 20 20 20 20 21 21 20 17 14 12 13 14 14 13 13 12 11 11 11 10 10 10 9 9 9 9 8 8 8 7 7 7 8 9 8 8 9 10 10 10 12 13 12 11 12 13 14 14 14 14 13 11 8 4 2 7 10 9 8 7 6 5 6 6 6 7
14 14 15 17 19 18 18 19 19 20 22 23 24 24 22 21 22 23 22 20 18 18 18 18 18 17 14 12 11 12 14 14 14 13 12 11 11 11 10 10 11 11 12 13 12 11 11 11 10 9 10 12 12 11 9 10 12 11 9 8 9 9 8 8 9 12 12 11 12 12 10 6 3 2 4 5 5 4 4 5 5 7 8 7 7
14 14 14 15 18 19 20 21 21 22 24 25 26 27 25 24 24 25 23 21 19 17 16 16 16 14 12 11 11 12 14 14 14 13 12 11 11 10 10 10 11 13 15 18 17 16 18 20 20 19 20 21 22 21 18 16 15 15 12 9 7 8 8 7 7 9 10 9 9 9 8 5 3 2 2 2 3 4 5 5 6 8 7 6 7
15 16 15 14 14 14 16 19 21 21 22 24 25 25 25 24 24 24 24 22 21 19 17 17 15 13 12 13 13 13 13 13 12 11 11 10 9 8 9 9 11 14 17 19 20 22 24 25 26 24 23 24 24 24 23 21 20 19 18 15 12 10 9 8 7 8 9 8 7 7 5 4 2 2 2 3 5 6 6 5 6 6 5 4 5
14 14 15 16 15 13 12 13 16 18 19 20 21 21 22 21 21 21 22 21 21 21 20 19 17 15 14 13 13 12 12 12 11 10 10 9 7 6 7 7 9 13 16 18 21 24 25 25 26 24 23 23 23 22 21 21 20 19 18 17 17 15 12 9 8 8 8 6 5 5 5 4 1 2 4 5 6 7 7 6 5 5 4 4 3
13 13 14 17 18 17 15 13 12 12 13 14 14 16 17 17 17 17 17 18 19 20 20 19 18 17 16 15 14 14 14 14 13 12 11 9 5 3 4 5 8 12 15 17 21 23 23 24 25 24 23 22 21 20 19 19 19 19 18 17 18 17 14 11 9 7 6 5 5 5 4 3 1 4 5 7 7 7 6 5 4 4 3 3 2
15 15 17 19 19 18 17 15 13 11 11 10 10 10 11 12 13 12 13 14 16 17 19 20 18 17 16 16 15 15 16 15 14 14 15 13 8 6 8 12 16 18 17 18 21 22 22 22 23 22 22 22 21 19 19 18 17 17 17 16 17 16 13 10 8 7 6 6 6 5 3 2 2 5 6 7 6 4 3 3 3 3 2 2 2
15 15 15 17 17 16 16 15 15 13 13 11 10 10 11 11 11 10 8 9 12 16 18 19 17 15 14 14 13 13 15 15 14 14 16 18 18 18 20 23 23 21 19 20 21 20 19 20 20 20 20 20 19 18 18 18 18 17 16 16 17 16 13 9 7 7 7 5 4 4 2 1 3 5 6 6 4 2 2 3 3 3 3 4 5
15 14 13 12 12 13 13 14 14 13 12 12 12 13 14 13 11 11 10 7 10 14 18 18 16 14 12 11 10 10 12 14 13 12 13 16 17 18 20 22 22 21 21 21 20 19 17 17 17 17 17 17 17 17 16 17 17 17 16 16 17 18 14 9 7 7 7 5 4 2 1 3 4 5 5 5 4 4 5 5 5 5 6 6 6
15 15 14 14 13 12 12 13 14 13 13 13 14 13 13 12 10 11 13 11 11 12 14 14 12 10 9 10 10 9 9 11 12 11 12 12 11 12 18 22 22 21 20 19 18 17 16 15 14 14 14 15 15 15 15 15 15 15 14 14 17 17 14 9 7 7 7 5 4 3 4 5 6 5 5 5 5 6 6 6 6 6 6 6 7
16 16 16 16 14 12 12 11 12 11 11 12 13 12 11 11 10 12 15 15 15 13 13 11 9 8 9 11 13 12 10 11 12 12 13 13 11 12 17 20 20 19 19 17 15 15 14 13 12 12 12 13 13 14 14 14 13 12 11 12 15 16 13 9 7 7 6 5 6 6 7 8 8 6 6 7 6 6 5 5 6 7 6 7 8
15 16 15 15 12 10 10 11 11 11 10 10 11 11 11 11 12 13 15 17 17 15 14 13 11 12 12 13 14 13 12 14 16 16 17 18 16 16 17 18 18 18 17 14 13 13 14 14 13 12 12 12 12 12 12 13 12 11 10 12 14 14 13 10 8 8 8 8 9 8 8 9 9 8 8 8 7 6 6 7 7 8 7 7 8
11 10 10 11 10 8 8 9 10 11 11 10 9 9 11 13 13 13 13 15 16 16 15 13 13 13 12 12 11 11 13 16 17 17 18 19 20 20 19 19 18 17 15 14 15 16 18 18 16 14 13 11 10 10 11 11 10 10 11 12 13 14 13 11 9 9 9 8 8 9 9 9 9 9 8 8 8 8 8 7 7 7 8 9 9
9 9 9 9 8 5 5 6 7 8 10 10 8 7 10 12 13 13 12 13 15 15 13 12 13 13 11 10 10 11 14 16 17 16 17 17 18 18 18 18 17 16 15 15 16 18 19 20 19 17 15 13 11 11 11 10 9 10 11 11 12 12 10 9 9 10 10 9 9 9 9 10 9 8 8 7 7 7 7 8 9 7 7 9 9
8 9 8 8 8 6 6 8 8 9 9 9 9 8 8 8 10 12 12 12 13 11 8 8 11 12 10 9 10 13 16 16 15 15 15 16 15 14 13 14 15 15 15 13 13 14 16 16 17 17 17 16 15 14 13 12 11 10 10 10 11 11 10 10 11 12 11 10 10 9 8 8 7 7 7 6 5 5 7 9 10 9 7 8 9
7 8 8 6 6 8 10 10 8 6 5 7 8 7 5 5 7 10 10 10 10 7 4 5 10 12 10 10 11 13 15 15 14 14 13 13 13 13 12 11 11 11 12 11 10 10 12 12 12 13 15 16 15 15 15 14 13 11 10 10 11 12 13 12 12 11 9 9 10 9 8 7 6 6 6 4 3 3 4 7 10 9 6 8 11
5 6 7 6 4 6 9 10 9 6 4 5 6 6 4 5 8 8 9 10 9 5 2 1 9 11 11 12 12 12 13 13 13 13 12 11 12 13 13 12 10 9 10 10 9 9 10 10 10 10 11 12 12 13 14 14 13 12 10 9 9 10 11 11 11 11 10 9 8 7 6 6 5 5 5 5 4 2 1 5 9 8 8 9 10
5 4 5 5 3 3 5 8 9 7 4 3 3 4 3 7 11 10 9 9 8 4 2 2 6 10 10 12 12 12 13 12 11 11 11 11 11 11 12 11 11 10 9 9 9 9 9 9 8 7 7 8 9 10 11 12 11 10 9 8 8 9 10 10 10 10 9 8 6 6 5 5 7 6 4 4 7 6 5 5 6 8 8 9 10
5 5 5 5 2 2 2 4 4 4 5 6 6 7 4 4 10 10 7 6 5 3 2 3 2 6 8 9 10 11 11 10 10 9 9 10 10 10 10 9 9 9 9 8 8 7 7 7 7 6 5 6 8 8 9 9 9 9 7 6 6 8 8 8 8 7 6 5 5 5 5 5 8 7 4 3 7 9 7 4 5 6 7 8 8
4 4 4 4 2 1 2 1 1 3 4 6 8 9 4 6 9 6 5 6 7 5 4 2 1 1 5 7 8 9 9 8 8 8 8 8 8 8 7 7 7 7 7 7 6 6 5 5 5 5 5 6 7 7 7 7 7 6 5 4 4 4 4 4 4 3 3 3 3 4 4 5 7 8 5 3 4 7 8 8 8 8 9 9 8
3 3 3 4 3 1 1 2 3 3 3 5 7 7 2 9 11 6 4 5 7 8 7 4 1 2 1 3 5 6 7 7 7 7 7 7 6 4 4 4 5 6 6 5 5 4 4 5 5 5 6 6 6 6 6 5 5 4 3 2 1 0 0 0 1 1 1 1 1 2 3 4 4 5 5 4 5 5 6 7 8 9 9 9 9
3 3 3 5 5 4 3 4 5 5 5 5 6 5 2 5 7 5 4 6 8 10 10 7 3 2 2 0 2 4 5 6 6 6 6 6 5 4 2 2 3 4 4 4 4 3 4 4 5 5 5 5 5 5 5 5 5 4 3 2 1 1 1 1 1 2 2 2 1 1 1 2 2 3 3 4 5 5 5 5 6 7 7 8 9
3 3 4 6 7 6 6 6 7 6 5 4 6 7 6 5 6 7 8 10 11 11 12 11 8 5 4 3 3 4 4 6 7 8 6 5 4 3 2 1 1 1 2 3 3 3 3 4 5 5 5 5 5 6 6 6 5 5 4 3 3 2 1 1 1 2 3 3 2 2 1 1 1 2 3 4 4 5 5 4 4 5 6 6 7
4 5 5 6 6 6 6 6 8 8 7 7 8 8 7 7 9 10 11 14 14 13 14 13 10 8 8 7 6 7 8 8 9 10 8 6 3 2 1 1 1 0 2 3 3 3 4 5 6 7 7 6 6 6 6 6 5 6 6 5 4 3 1 2 2 1 2 3 2 1 1 2 2 2 3 4 4 4 5 5 4 6 7 6 6
6 6 6 6 6 6 7 7 7 8 8 8 10 10 10 11 12 12 11 13 15 17 18 15 10 9 10 9 7 6 6 7 9 11 9 7 4 2 0 1 2 2 3 2 1 2 3 5 6 7 6 6 6 6 6 6 6 6 7 6 5 3 1 2 3 3 3 2 2 1 0 2 3 3 4 5 4 3 4 4 4 6 6 5 6
Wind_Direction
170 172 169 170 174 176 173 170 168 164 158 157 156 154 151 149 148 147 147 150 153 154 154 155 154 152 154 157 157 152 150 151 150 150 149 150 153 158 161 161 160 165 166 160 159 163 162 160 161 161 162 169 173 172 173 174 178 186 191 189 183 181 177 167 155 154 169 179 179 178 178 174 173 175 173 174 177 179 184 185 179 176 173 173 176
173 176 174 175 178 175 169 166 164 158 152 151 151 151 151 152 152 152 151 154 157 158 157 155 152 152 155 157 154 153 152 146 146 154 159 159 161 165 176 176 169 168 168 162 157 164 169 166 164 165 166 168 173 176 173 173 187 201 198 192 185 181 176 165 155 149 155 171 174 173 177 176 172 176 180 183 182 181 187 190 185 181 180 180 181
171 176 179 181 178 173 167 165 163 157 150 150 153 153 156 157 157 159 158 157 157 155 154 156 155 153 153 154 157 157 153 148 155 161 158 157 161 158 151 154 153 151 153 152 150 153 161 166 165 166 171 170 170 179 183 189 206 197 190 189 187 183 180 170 161 155 156 167 174 172 175 180 179 181 189 195 192 185 188 194 190 186 187 189 190
174 181 184 179 175 173 170 167 163 157 152 156 158 157 159 161 161 164 163 161 157 150 151 161 162 158 157 157 159 158 155 158 162 158 154 154 151 136 131 137 148 156 149 147 154 158 155 161 163 164 171 173 173 184 190 164 146 152 151 159 170 178 180 173 165 161 161 168 177 177 179 185 188 186 188 195 197 193 192 196 195 193 194 196 199
179 185 183 176 175 174 170 166 162 160 161 162 162 160 162 163 163 165 166 165 157 149 153 163 162 159 158 158 161 161 162 167 162 154 161 160 141 135 135 131 143 160 153 144 150 156 153 155 159 164 170 172 169 175 163 92 117 135 129 124 137 153 165 165 162 164 167 172 178 181 182 186 189 189 190 194 196 195 197 201 200 200 201 204 208
178 181 178 173 174 174 171 167 163 165 165 161 159 160 161 162 162 165 168 163 154 150 153 157 156 159 158 158 163 163 163 169 160 153 160 156 142 141 137 116 116 138 145 139 140 144 141 145 155 163 168 169 163 152 140 118 108 110 111 121 134 140 147 156 167 176 177 174 176 181 183 183 186 189 194 198 198 195 197 203 206 207 208 210 215
178 179 180 174 173 174 173 171 169 166 161 157 155 154 157 161 163 166 167 158 152 153 155 154 156 161 158 155 160 163 163 163 157 155 159 157 150 143 134 120 114 123 128 124 136 144 141 144 153 157 164 170 160 111 106 121 116 91 87 107 136 149 143 139 166 189 190 182 179 184 188 188 188 192 196 200 202 201 198 197 202 209 214 217 220
201 189 186 177 173 172 171 173 172 164 160 157 151 150 157 163 165 167 165 157 155 157 156 156 158 161 158 155 158 163 165 161 158 159 160 155 150 140 132 127 117 118 118 107 119 135 137 140 144 140 146 154 149 124 97 99 109 93 87 106 134 152 147 120 136 170 186 190 190 193 197 197 193 193 194 193 194 201 204 202 203 208 213 219 224
240 216 191 173 164 161 162 169 167 159 159 159 154 154 160 164 165 167 166 164 164 161 158 158 160 158 155 154 155 158 158 156 157 158 149 143 141 134 132 132 115 112 116 104 102 113 116 116 115 104 102 96 77 83 102 99 122 111 96 111 131 139 138 119 116 126 145 171 183 188 200 205 199 189 190 193 198 204 208 208 211 213 213 217 223
261 220 179 150 145 142 138 150 159 158 156 155 156 159 161 161 160 160 159 161 161 160 160 157 152 150 148 145 143 141 138 137 141 143 141 140 138 131 131 138 127 116 116 107 102 109 110 106 103 94 84 76 63 48 36 28 7 252 197 165 152 153 156 146 136 127 105 114 144 164 191 205 208 195 190 199 209 213 210 209 214 218 214 215 223
61 127 133 125 130 129 118 125 141 148 149 145 146 154 158 156 153 151 151 149 149 154 155 139 132 137 137 133 130 126 122 119 121 127 134 138 135 126 118 117 119 119 119 111 102 106 111 105 98 85 54 42 52 41 27 23 13 344 304 270 253 238 216 197 172 176 186 66 245 256 184 196 221 230 226 225 229 228 220 216 218 219 212 210 219
58 88 110 123 134 133 121 120 122 126 132 133 132 140 145 144 143 145 145 144 145 148 140 127 125 128 127 123 119 117 113 110 112 117 124 127 123 116 104 93 91 90 96 105 98 94 94 78 78 118 304 327 339 331 318 326 344 346 329 304 278 269 274 277 283 285 273 270 263 257 253 244 244 245 248 252 253 250 238 229 230 230 220 214 217
55 66 85 113 136 143 136 126 115 112 119 121 122 127 130 129 130 131 130 132 137 136 128 123 122 121 120 114 109 110 109 106 107 108 113 119 118 109 94 80 74 68 68 78 83 81 76 51 51 206 257 292 302 294 289 291 294 289 297 307 309 297 291 293 297 302 291 284 284 276 268 263 254 245 248 258 260 261 256 246 244 248 245 235 229
55 58 66 86 120 142 145 133 121 117 117 117 116 117 117 115 115 116 117 117 118 118 118 119 116 112 111 109 106 105 106 105 106 106 106 110 112 102 81 66 64 63 62 66 64 56 30 0 0 318 282 288 283 275 271 274 273 264 272 291 311 311 301 299 294 295 296 292 291 290 283 273 265 259 260 265 266 266 264 258 256 258 262 261 252
53 55 61 71 94 123 134 130 123 118 116 114 112 111 110 108 107 107 106 104 102 105 110 113 111 103 97 103 108 103 99 100 103 104 102 100 105 97 68 63 70 75 74 72 66 57 34 0 350 337 283 270 277 270 262 261 265 267 267 275 296 301 294 293 291 290 292 290 289 290 285 276 273 269 263 259 261 266 266 263 264 267 268 266 254
50 51 55 62 77 100 115 117 115 115 113 111 109 108 105 105 108 107 104 99 91 93 104 108 113 115 109 111 118 107 95 91 91 94 98 103 111 91 67 76 86 85 76 64 56 55 50 31 17 14 258 247 261 269 268 262 260 264 265 271 288 295 285 284 291 293 293 292 290 287 278 267 263 265 264 260 262 268 264 252 248 250 253 247 233
47 48 51 56 67 82 97 105 109 112 113 112 113 112 105 106 114 117 118 119 110 103 109 108 111 120 119 117 119 110 94 81 75 80 86 94 102 94 94 98 92 83 74 68 68 71 69 63 57 69 201 240 251 264 268 260 257 260 256 257 272 280 277 282 289 292 294 295 292 284 273 265 263 266 269 268 265 262 252 242 241 243 243 235 229
46 48 51 54 62 72 83 92 98 106 112 117 119 118 112 110 118 125 129 134 133 126 122 113 105 106 106 104 103 99 89 78 73 80 85 86 89 94 100 100 91 85 85 82 80 85 88 90 96 110 150 249 260 274 287 291 302 298 267 256 268 275 280 288 293 296 297 295 289 281 273 272 273 273 271 265 260 254 246 245 248 246 242 235 232
50 52 54 58 64 70 76 81 85 92 102 112 119 121 115 111 120 128 130 130 128 126 123 115 104 98 96 95 93 90 86 78 72 77 81 78 79 87 95 100 95 93 96 97 90 86 96 106 110 110 91 41 11 346 342 344 340 332 302 273 272 277 285 293 295 298 300 296 290 284 281 282 281 277 268 256 252 250 246 245 243 238 235 235 232
59 60 62 64 67 70 72 74 76 78 86 98 109 114 114 114 120 126 127 127 127 124 120 113 104 99 96 94 89 84 82 77 70 70 72 74 76 84 94 97 94 94 103 117 112 90 84 85 80 74 59 36 21 10 4 358 349 341 325 303 289 285 289 289 284 286 291 289 287 285 285 288 283 273 264 253 249 248 247 248 246 242 243 243 234
67 67 67 68 69 72 73 73 73 74 80 90 98 102 108 116 121 124 125 126 125 120 115 110 104 97 93 92 87 81 77 75 71 68 69 71 72 76 83 86 87 94 104 109 101 81 69 61 52 44 34 23 16 9 3 359 356 351 340 330 317 301 291 284 278 279 280 281 282 280 277 276 274 266 248 244 247 249 249 252 252 252 252 249 237
72 71 68 68 70 72 73 73 74 76 81 88 92 93 98 107 114 119 122 122 120 117 114 110 104 98 92 88 85 81 76 74 71 67 65 65 65 67 73 77 81 92 98 93 79 62 48 36 28 20 11 6 2 357 355 353 351 348 345 340 331 318 306 296 290 286 281 279 282 282 275 271 271 261 234 236 247 250 248 250 252 253 254 250 235
69 70 69 69 69 70 71 72 74 76 80 86 89 89 90 95 101 109 114 114 113 113 112 109 106 101 96 89 83 80 76 72 68 63 59 59 62 64 67 70 71 72 74 69 53 36 23 11 4 359 353 349 346 344 346 347 346 346 347 343 338 334 327 317 308 300 294 290 289 287 285 284 279 268 250 243 243 238 235 236 239 244 248 239 212
66 67 69 68 67 68 70 70 72 75 78 84 87 88 89 91 93 97 103 107 107 109 111 112 110 105 100 93 86 79 75 70 63 58 54 53 57 62 65 68 69 64 56 46 28 11 1 354 350 348 344 344 343 341 342 346 350 353 354 352 347 344 339 333 328 326 327 325 317 307 299 292 285 274 255 234 218 211 210 203 196 206 211 193 172
68 70 71 68 65 68 72 72 71 72 74 78 82 85 88 90 89 90 93 95 94 94 96 101 106 108 104 95 85 76 72 66 59 55 53 51 53 58 61 63 65 57 43 31 19 9 0 355 354 356 358 2 4 4 6 11 13 15 15 12 7 3 2 0 353 350 353 351 346 337 321 302 290 276 241 212 198 192 187 174 157 148 144 140 136
69 70 69 68 67 68 69 70 69 70 73 76 77 80 84 86 85 85 86 87 86 84 83 82 85 93 96 89 75 66 62 59 56 52 49 51 54 56 59 60 58 53 45 38 33 26 17 16 29 42 46 43 39 40 43 41 36 37 36 31 27 27 29 28 20 14 9 2 357 355 343 322 305 269 208 196 189 180 171 167 156 143 140 140 131
73 72 67 66 70 74 73 70 68 70 75 79 79 78 80 82 81 77 75 78 80 80 80 77 76 81 86 80 66 55 51 49 48 45 46 52 57 57 58 58 56 53 51 46 42 41 39 37 41 44 42 33 22 19 28 30 26 30 37 40 40 38 35 30 23 15 10 8 7 5 355 336 310 216 186 184 179 168 165 174 164 140 139 148 135
75 78 76 76 79 83 82 77 74 75 76 78 78 77 75 77 76 71 67 67 71 74 74 70 66 69 73 68 54 46 43 41 40 41 44 50 55 58 59 58 52 47 44 40 37 38 40 41 43 42 40 39 33 25 23 24 21 17 18 27 35 35 33 31 19 9 4 5 9 8 358 340 306 212 184 181 179 172 177 185 162 142 140 137 119
68 76 85 90 89 87 84 81 80 80 80 79 78 76 75 74 74 72 68 66 66 67 67 62 56 54 57 55 47 42 42 41 39 39 40 42 47 51 50 48 46 43 39 38 43 52 57 58 61 63 62 61 58 54 50 46 42 38 37 33 26 22 21 16 9 9 10 4 2 5 360 343 319 278 238 206 174 162 168 169 152 145 146 133 105
65 68 78 91 97 94 89 85 84 85 87 86 85 84 81 78 76 76 74 70 67 64 64 62 57 54 56 60 56 50 48 46 40 36 35 33 31 34 36 39 43 42 41 46 58 66 66 62 59 59 58 58 56 54 51 49 47 46 46 46 45 41 32 22 11 9 7 357 355 2 3 350 325 268 225 188 162 155 159 163 155 149 151 136 110
64 64 72 82 90 96 98 93 89 90 91 89 90 91 91 87 83 81 78 75 71 68 66 66 65 63 64 66 65 60 57 53 47 40 32 23 24 44 49 40 37 42 49 60 68 67 63 59 56 53 53 52 49 46 45 44 41 37 35 37 41 41 40 36 23 6 357 356 0 2 357 350 309 208 192 171 155 146 142 140 133 124 120 116 107
63 65 73 80 84 86 88 91 92 92 91 89 87 89 91 92 91 87 81 78 75 71 68 66 66 68 71 71 71 69 63 55 48 42 33 24 27 65 63 43 50 61 67 71 67 61 58 58 55 50 49 48 44 39 36 34 31 28 25 26 29 32 37 37 25 7 5 11 12 9 359 339 233 190 180 168 154 142 132 122 105 97 97 98 93
68 72 78 81 82 81 79 83 87 89 90 91 87 85 86 88 90 92 91 87 81 76 69 64 64 71 75 74 72 67 58 51 48 47 44 43 52 74 80 77 76 76 72 68 63 59 58 57 53 50 49 46 40 34 32 29 24 23 23 20 20 24 32 33 22 20 29 25 13 8 357 311 207 177 169 163 157 142 116 76 48 41 35 38 51
74 77 79 81 84 83 80 79 81 83 84 82 84 90 91 85 79 78 84 94 91 81 69 62 64 72 74 69 65 61 53 50 51 50 53 64 80 91 92 87 81 75 68 64 63 59 56 55 54 51 49 46 39 31 30 30 27 25 24 21 17 19 27 33 28 25 29 25 12 7 3 203 181 170 161 151 142 111 61 37 21 27 46 58 56
78 73 69 75 83 89 88 81 76 78 80 75 77 87 88 81 72 60 57 85 110 94 74 64 65 68 62 50 48 56 56 53 49 43 47 64 82 93 92 84 76 70 65 61 59 57 53 53 54 51 49 48 42 33 30 31 31 30 27 21 16 18 25 32 27 20 22 28 33 37 124 147 144 142 134 114 83 60 59 63 64 64 63 61 51
88 79 69 71 76 83 87 80 70 72 78 77 78 82 78 73 72 63 59 82 120 108 79 67 67 67 58 47 53 67 63 48 43 41 42 50 65 81 83 79 73 69 65 62 61 61 57 52 51 52 50 48 42 37 36 37 36 35 32 22 17 21 28 34 34 27 26 34 57 96 121 116 109 105 92 78 74 80 81 72 50 29 21 25 26
90 92 83 76 74 74 73 69 67 71 76 75 76 77 74 76 81 72 69 88 109 101 76 66 68 70 65 63 67 71 62 51 53 54 49 48 58 75 81 80 75 70 67 66 64 62 55 48 46 49 50 47 44 43 44 43 39 38 36 26 21 24 29 32 31 30 36 56 82 98 101 97 95 92 88 87 89 84 70 48 26 20 27 31 20
83 90 85 78 75 71 62 60 69 78 81 79 76 70 68 77 83 75 74 86 93 82 64 58 59 59 62 68 72 72 67 66 69 66 57 54 63 78 83 80 76 74 72 66 60 56 54 52 51 53 53 50 45 43 45 47 47 47 44 34 30 35 42 45 47 54 68 82 89 94 97 99 99 96 92 89 82 71 64 56 43 36 31 16 1
77 77 80 77 76 77 72 68 73 81 85 88 86 72 66 73 79 78 78 81 79 69 60 57 55 53 59 69 74 76 78 78 76 74 69 65 69 78 82 80 78 77 72 65 64 65 64 62 61 62 62 57 48 40 40 46 53 55 48 42 43 51 57 58 62 70 78 84 93 99 102 100 96 89 86 85 79 73 68 55 37 19 0 347 336
71 69 74 67 57 61 87 84 74 73 81 90 94 82 70 71 76 80 82 82 77 68 60 56 53 49 49 54 60 73 86 87 82 81 83 81 79 81 82 82 82 80 75 69 69 72 70 65 62 61 61 58 52 43 39 47 59 60 53 51 56 62 64 65 71 77 80 84 92 97 95 92 85 76 74 78 74 65 59 46 30 11 346 338 331
60 63 62 52 45 57 92 96 78 66 71 84 92 89 79 77 81 82 83 84 80 70 56 45 43 40 40 51 70 84 89 90 88 87 87 87 87 86 85 87 87 85 81 77 73 73 73 67 59 56 55 55 55 53 53 59 65 62 62 70 77 81 83 85 85 85 83 82 84 83 80 80 74 62 63 70 64 61 63 46 25 10 4 13 21
41 42 41 44 56 73 87 89 72 57 72 91 91 84 83 98 95 83 81 86 81 71 58 31 28 38 61 85 94 96 94 91 93 95 91 86 86 83 83 90 95 93 90 87 82 81 82 77 67 59 55 52 52 54 60 69 73 70 73 86 93 93 94 94 92 91 88 85 84 81 75 70 62 51 49 46 45 74 73 28 7 9 36 52 54
17 29 37 40 52 76 79 68 51 46 79 105 92 75 83 123 120 98 91 95 89 81 131 348 13 36 81 105 102 99 101 99 96 95 93 92 91 87 86 91 97 98 96 93 90 91 92 87 80 72 61 55 54 54 58 68 76 79 83 91 98 99 98 97 96 93 89 87 86 79 68 54 39 32 31 26 28 57 350 352 7 32 61 64 59
9 13 23 30 49 89 74 50 35 30 31 38 41 39 74 129 133 123 111 108 97 91 188 240 2 36 84 113 111 102 104 105 101 95 94 97 99 96 94 97 98 96 93 90 88 91 94 94 95 90 72 59 59 60 61 65 71 78 86 95 103 108 106 103 100 95 88 83 73 57 44 29 17 18 30 34 25 10 332 335 22 55 63 59 57
357 354 0 17 45 116 87 46 18 354 350 352 344 335 331 143 137 125 120 130 127 115 180 228 326 38 74 105 123 122 116 113 115 110 103 101 101 97 93 93 95 94 92 88 86 88 90 93 100 99 73 51 51 58 64 65 66 73 85 95 107 115 112 107 105 103 97 88 68 49 45 34 21 18 19 13 15 17 17 22 49 55 43 36 45
321 328 348 2 4 167 152 131 316 323 335 342 345 343 324 185 168 142 127 155 167 156 142 162 240 13 61 82 113 137 138 129 128 130 124 118 112 102 91 86 87 90 90 86 82 81 78 77 81 78 65 53 52 56 62 64 64 71 81 85 95 106 103 94 101 106 96 80 57 42 44 37 24 24 31 30 25 38 52 60 61 56 45 37 39
283 290 325 340 330 251 225 257 258 269 304 321 341 2 81 169 176 164 135 154 177 178 165 148 166 241 265 70 96 138 157 152 138 131 129 128 125 115 102 92 86 83 81 77 73 67 57 56 58 58 55 51 47 49 52 54 55 60 63 60 55 53 342 85 168 176 133 79 42 37 43 36 27 31 43 41 31 35 44 50 54 55 54 51 46
291 298 313 313 300 289 291 274 248 246 269 288 301 312 268 187 194 206 190 172 176 182 180 174 169 215 238 151 102 131 158 165 161 151 140 132 128 127 130 111 81 72 69 72 73 70 62 57 53 51 47 39 28 25 26 27 25 25 22 7 333 283 244 201 207 213 207 206 237 271 14 26 26 32 30 23 26 33 35 34 38 40 42 49 50
298 301 301 296 291 290 287 268 252 253 261 261 269 277 270 246 247 247 217 189 181 184 186 185 189 203 210 194 176 174 178 181 182 180 171 153 135 130 142 179 164 54 50 59 63 58 56 50 41 35 35 30 23 21 21 17 13 8 1 350 333 305 263 211 188 199 204 213 239 264 285 318 355 37 32 26 43 56 52 37 27 22 21 27 35
276 280 282 283 285 292 293 279 267 265 257 246 251 260 259 261 271 262 225 200 195 195 192 188 190 201 208 210 215 222 222 216 205 195 186 176 167 149 122 158 182 109 56 63 55 33 20 10 6 13 22 26 24 24 22 18 16 14 6 357 346 330 285 215 191 184 184 192 204 231 320 339 354 48 53 48 63 73 61 45 30 24 27 31 26
265 267 275 282 284 292 300 296 286 280 265 243 238 247 258 268 279 276 250 222 208 202 199 196 187 182 193 208 228 239 230 215 206 202 200 199 203 214 353 102 149 132 113 109 71 2 354 346 347 356 11 20 24 25 22 17 17 16 11 5 3 9 38 168 183 186 181 183 196 212 342 4 15 42 55 55 59 60 53 41 24 17 21 20 7
Height
785 787 788 790 791 790 792 795 798 800 802 803 803 803 805 807 809 810 812 814 815 817 819 820 822 824 825 826 827 828 829 830 832 834 835 836 837 838 839 839 840 840 841 842 842 843 844 844 845 846 847 848 849 850 850 851 852 853 853 853 853 854 854 856 857 859 862 862 862 864 866 867 868 869 870 871 873 874 875 877 877 877 878 878 879
784 787 788 789 789 789 791 794 797 798 800 802 803 804 806 808 810 811 813 814 816 817 819 821 822 824 825 827 828 829 830 831 832 834 835 836 837 838 838 839 840 840 841 842 843 843 844 845 845 846 847 848 849 849 850 851 852 852 852 852 853 853 854 855 856 858 860 862 863 864 866 866 868 869 870 871 872 874 875 876 877 877 878 878 879
784 786 789 790 790 790 792 794 796 797 799 801 803 805 807 808 810 812 813 814 816 817 819 820 822 824 825 827 828 829 830 831 833 834 835 836 837 837 838 838 840 840 841 842 843 844 844 845 845 846 847 848 848 849 850 851 851 851 851 851 852 853 854 854 855 857 859 861 863 864 865 866 867 868 869 870 871 873 874 875 876 877 878 878 878
784 785 787 789 790 791 792 794 795 797 799 801 803 805 807 808 810 812 813 814 816 817 819 820 822 823 825 827 828 829 831 832 833 834 835 836 837 838 838 838 839 840 841 842 843 844 844 845 845 846 847 848 848 849 850 851 851 850 850 851 852 852 853 853 854 855 858 860 862 863 864 865 866 867 869 870 871 872 873 874 875 876 876 877 877
783 783 785 787 789 791 792 794 795 797 799 800 802 804 806 808 810 811 813 814 815 816 818 820 822 823 825 827 828 830 831 832 834 835 836 837 837 838 838 839 839 840 842 843 843 844 845 845 846 846 847 848 848 849 850 850 850 850 850 851 852 852 853 854 854 855 857 858 860 862 863 864 865 866 867 868 870 872 873 874 874 875 876 876 877
784 784 785 787 789 791 793 794 796 797 798 800 802 804 806 808 810 811 812 813 815 816 818 820 822 824 825 827 829 830 831 833 834 835 836 837 837 838 839 840 840 841 843 844 844 845 845 846 847 848 848 849 849 849 850 850 850 850 850 850 851 852 853 854 855 856 857 857 859 861 862 862 863 865 866 866 867 868 870 872 873 874 874 875 875
786 787 786 787 789 791 793 795 796 798 799 800 801 803 805 808 809 811 812 813 814 816 818 820 822 824 826 828 829 831 832 833 834 835 835 836 837 838 839 840 841 842 844 844 845 845 846 847 848 849 849 849 850 850 850 850 850 850 850 850 851 852 853 854 854 855 856 857 858 859 860 861 861 862 864 865 865 866 867 869 871 872 872 872 873
786 787 787 788 790 792 794 796 797 798 800 800 801 803 805 807 809 811 812 813 815 816 818 820 822 825 826 828 829 830 831 832 833 834 835 836 837 838 839 841 842 843 844 845 845 846 847 848 849 850 850 850 850 850 850 851 851 851 851 851 851 852 853 854 854 854 855 856 857 858 858 859 860 860 862 864 865 865 865 865 866 867 868 869 870
785 786 787 789 791 793 795 796 797 798 800 801 802 803 805 807 809 810 812 814 815 817 819 821 822 824 825 827 828 830 831 832 833 834 835 836 838 839 840 841 842 843 844 845 846 846 847 848 849 850 851 851 851 852 852 852 852 852 852 852 852 852 853 853 853 854 854 855 856 857 857 858 859 860 861 861 861 861 861 862 863 863 864 865 866
785 785 788 790 791 794 795 796 797 798 799 801 802 804 806 808 809 811 812 814 816 817 820 821 822 823 825 826 828 830 831 833 834 835 836 837 838 839 840 842 842 843 844 844 845 846 847 848 849 850 851 851 851 852 852 853 853 853 852 852 853 853 852 853 853 853 853 854 854 855 856 856 857 858 860 860 860 860 860 861 860 861 862 863 864
786 785 788 790 792 795 796 796 797 798 799 800 802 804 806 808 809 811 813 814 816 818 820 821 821 823 825 826 828 830 831 833 834 835 836 837 838 839 840 842 842 843 843 844 846 847 847 848 849 850 851 851 851 851 852 852 852 853 853 853 852 852 852 852 853 853 853 853 854 854 854 855 857 857 858 858 859 860 860 860 859 860 860 861 861
788 787 789 791 793 796 798 798 799 799 799 801 803 804 806 808 809 811 813 815 816 818 819 820 822 823 825 826 828 830 832 834 835 836 836 837 839 840 841 841 842 843 843 844 845 846 847 848 849 849 851 851 851 851 851 852 852 852 853 853 852 852 852 852 852 853 853 853 853 854 854 855 856 856 856 856 856 857 857 858 858 859 859 858 857
792 791 792 793 794 797 799 800 802 802 801 802 803 804 806 808 810 812 813 815 816 818 819 821 822 824 826 827 829 831 832 834 835 836 837 838 839 840 840 841 842 843 843 844 845 846 846 848 848 849 850 850 850 850 851 852 851 851 852 853 853 852 852 852 852 852 853 853 853 853 853 854 854 854 855 855 855 855 855 855 856 856 857 857 856
796 796 796 796 797 798 801 802 804 804 803 804 805 806 807 809 811 813 814 816 818 819 820 822 823 825 827 828 830 831 833 835 836 836 837 838 838 839 840 842 842 843 844 844 845 846 846 847 848 848 848 849 849 850 850 851 850 850 851 852 853 852 851 851 852 852 852 852 852 852 852 852 852 852 853 853 853 853 852 853 853 854 854 855 854
801 801 801 801 801 801 802 804 805 805 805 806 807 808 809 809 812 814 815 817 819 821 822 823 824 826 828 830 831 832 834 835 836 836 837 838 839 839 840 841 842 843 844 844 845 846 846 847 847 848 848 848 848 849 849 849 849 849 849 851 852 852 851 850 850 851 851 851 851 850 850 851 851 851 851 851 851 851 850 851 851 851 852 852 851
805 805 805 805 804 804 804 805 806 806 807 808 809 811 811 811 813 814 815 818 821 823 824 825 825 827 829 831 832 833 834 835 836 836 837 839 839 839 840 841 842 843 844 845 845 846 846 847 847 847 847 847 848 848 847 847 847 847 848 849 850 851 850 849 849 849 849 849 849 849 848 849 849 849 849 849 849 849 849 848 849 849 849 849 848
810 810 809 808 808 807 807 806 807 808 809 810 812 813 814 815 815 816 818 820 824 826 826 827 828 829 830 831 833 834 835 836 836 836 837 838 839 840 841 841 842 843 844 845 846 846 846 847 847 847 847 846 847 847 847 847 846 846 847 848 849 850 849 848 847 847 847 847 847 847 847 847 847 847 847 847 846 847 847 847 847 847 847 846 845
814 813 813 812 811 810 809 808 809 810 811 813 815 816 817 818 818 819 821 823 825 827 827 828 830 831 831 832 833 834 835 836 837 837 838 838 839 840 841 841 842 843 844 845 846 846 846 846 846 846 846 846 846 846 846 846 846 846 847 848 848 848 848 847 846 846 846 846 846 845 845 845 845 845 844 844 843 844 844 844 844 844 844 843 843
818 817 816 815 814 813 812 812 813 813 814 815 817 818 818 819 819 820 822 824 825 827 828 829 830 832 832 833 834 835 836 837 838 838 838 838 838 839 840 841 841 842 844 845 846 846 846 846 846 846 846 846 846 846 845 845 845 845 846 847 847 847 847 846 845 845 845 845 844 844 844 843 843 843 842 841 841 841 841 842 841 841 841 841 842
821 821 820 818 817 816 816 816 816 816 817 817 819 820 820 820 821 821 823 824 826 828 830 830 831 833 834 834 835 837 838 838 839 838 838 838 839 839 840 841 841 843 843 844 845 845 845 845 845 845 845 845 845 845 844 844 844 845 845 845 845 845 844 844 844 844 844 844 843 843 842 842 842 841 840 839 839 839 839 839 839 839 839 839 840
824 824 823 821 821 820 820 820 819 819 820 820 821 822 822 822 823 823 825 826 827 829 831 831 832 834 835 836 837 838 839 839 839 840 839 839 840 840 840 841 842 843 843 844 845 845 845 845 845 845 845 845 845 844 844 844 844 844 844 844 844 844 843 843 843 843 843 843 843 842 842 841 841 840 839 838 837 838 838 837 837 837 837 838 839
827 827 826 825 824 824 823 823 822 822 822 822 823 824 825 825 825 826 827 828 829 830 832 832 833 835 836 837 838 839 840 840 841 841 841 841 841 841 841 843 844 844 844 845 845 846 846 846 846 845 845 844 844 844 844 844 843 843 843 844 844 843 843 843 842 842 842 842 842 842 841 841 840 840 838 837 836 836 836 836 836 836 836 837 837
830 829 829 829 828 827 827 826 825 825 825 825 825 825 826 827 828 829 829 829 830 832 833 834 835 836 837 839 840 840 841 841 841 842 842 842 842 842 843 844 844 844 845 845 846 846 846 846 845 845 845 844 844 844 844 843 843 843 843 843 843 843 842 842 841 841 841 841 841 841 841 840 840 839 838 837 836 836 836 836 836 835 835 836 836
832 832 832 832 831 831 830 829 828 828 828 828 827 827 828 829 829 830 831 832 833 834 836 836 837 837 838 840 841 842 842 842 842 842 842 842 842 843 843 844 844 844 844 845 845 845 845 845 844 844 844 843 843 843 843 843 843 843 842 842 842 841 841 841 840 840 840 840 840 840 840 839 839 838 838 838 838 838 838 838 837 837 837 836 836
834 834 834 834 834 834 833 832 831 831 831 830 830 830 831 831 831 832 832 833 835 836 837 839 839 839 841 841 842 843 843 843 843 843 843 843 843 843 843 844 844 844 844 844 844 844 844 843 843 843 843 843 843 843 843 843 842 842 842 842 841 841 840 840 840 840 840 839 839 839 839 838 838 838 838 838 838 839 839 839 839 839 839 839 839
836 836 836 836 836 836 835 834 834 834 833 833 833 833 833 833 833 834 834 835 836 837 838 839 840 841 843 843 843 844 844 844 843 843 844 844 843 844 844 844 844 844 844 845 845 844 844 843 843 843 843 842 843 843 842 842 842 842 842 841 841 841 840 840 840 840 840 840 840 839 839 838 838 838 838 839 839 839 840 840 840 840 841 842 842
839 838 838 838 838 838 838 838 837 837 836 835 835 835 835 835 835 836 837 838 838 838 839 840 841 842 844 844 845 845 845 844 844 844 844 844 844 844 844 844 844 845 845 845 845 844 844 844 843 843 843 843 843 843 842 843 842 842 842 842 842 841 841 841 841 841 841 840 840 840 840 839 839 839 839 840 840 840 841 841 841 841 842 843 843
841 841 840 840 840 840 841 840 840 840 839 838 837 837 838 838 838 839 840 841 841 841 841 842 843 844 844 845 845 845 845 845 845 845 845 845 845 845 845 845 845 845 845 845 845 844 844 844 843 843 842 842 842 842 842 843 843 843 843 842 842 842 842 842 842 841 841 841 841 841 840 840 840 840 841 841 841 841 842 842 842 842 843 844 844
842 842 842 842 842 843 843 843 843 842 842 841 841 841 841 841 841 842 843 843 843 844 844 844 845 845 845 846 846 846 846 846 846 846 846 846 845 845 845 845 845 845 845 845 844 844 844 843 843 843 843 843 843 842 843 844 844 843 843 843 843 843 843 843 842 842 842 841 841 841 841 841 841 841 842 842 842 842 842 843 843 843 844 844 844
844 844 844 844 844 844 845 845 845 845 845 844 844 844 845 845 845 846 846 847 847 846 846 846 847 847 847 847 848 848 848 848 848 848 847 846 846 845 845 845 845 845 845 845 844 844 844 844 845 845 845 845 845 845 845 845 845 845 844 844 844 844 843 843 843 843 842 842 841 841 841 841 841 842 842 842 843 843 843 843 843 844 844 844 844
846 845 845 846 846 846 847 847 848 848 848 847 847 847 848 848 848 849 849 849 849 849 849 849 849 849 849 849 849 850 850 850 849 848 847 846 845 845 845 845 845 845 846 845 845 845 846 846 847 847 847 847 847 847 847 847 846 846 846 845 845 844 844 844 844 843 843 842 842 842 842 841 841 842 842 843 843 843 844 844 844 844 844 844 845
848 847 847 847 847 848 849 849 850 850 850 850 850 850 849 850 850 851 851 851 851 851 851 851 851 850 850 850 851 851 851 850 850 849 847 846 845 845 845 845 845 846 846 845 845 846 847 848 848 849 848 848 848 848 848 847 847 847 846 845 845 845 844 844 844 844 843 843 843 843 843 842 842 842 843 844 844 844 844 845 845 845 845 845 845
850 850 849 849 849 850 850 851 851 852 852 852 852 851 851 851 852 852 853 853 853 853 852 852 852 852 852 852 852 852 852 851 850 849 848 847 845 844 844 845 845 846 846 846 846 848 848 849 849 849 849 849 849 849 849 848 848 847 847 846 846 845 845 845 844 844 843 843 843 843 843 843 843 843 843 844 844 845 845 845 845 846 846 846 846
852 852 851 851 851 851 852 853 853 853 853 853 853 852 853 853 853 853 853 854 854 854 854 854 854 853 853 853 853 853 853 852 851 851 850 848 846 845 845 845 846 847 847 847 848 849 850 850 850 850 850 850 850 849 849 849 848 848 847 846 846 846 845 845 845 844 844 844 844 844 844 844 844 844 844 844 845 846 846 846 846 847 847 847 847
853 853 853 853 853 853 854 854 854 854 854 854 854 854 854 854 854 854 854 854 854 855 855 855 855 855 855 855 854 854 854 853 852 851 851 850 849 847 846 846 848 849 849 850 850 851 851 851 851 851 851 851 850 850 849 849 849 848 847 847 846 846 845 845 845 845 844 844 844 844 844 844 845 845 845 845 846 847 847 847 847 847 847 847 847
854 854 855 855 855 855 856 856 856 855 855 855 855 855 855 855 855 855 855 854 855 856 857 856 856 856 856 856 855 854 854 853 853 852 851 851 850 848 848 849 850 851 851 852 852 852 853 853 852 852 852 851 851 851 850 850 849 849 848 848 847 846 846 845 845 845 845 845 845 845 845 845 846 846 846 847 847 848 848 848 848 848 848 847 847
856 856 856 857 857 857 857 857 857 857 856 856 857 857 857 857 857 856 856 856 856 857 858 857 857 856 856 856 855 855 855 854 853 852 852 851 851 850 850 851 852 853 853 854 854 853 853 853 853 853 853 853 852 852 851 851 850 850 849 849 848 848 847 847 846 846 846 846 846 846 846 847 847 847 847 848 848 848 848 849 849 848 848 848 847
858 858 857 858 858 858 858 858 858 858 858 858 858 858 858 858 858 857 857 857 858 858 858 857 857 856 856 856 856 856 856 855 854 854 853 853 852 852 853 853 854 854 855 855 855 854 854 854 854 854 854 854 854 853 852 852 851 851 850 850 849 849 848 848 848 847 847 847 848 848 848 848 848 848 848 848 849 849 849 849 849 849 849 848 848
859 859 859 858 859 859 859 859 859 859 859 859 859 859 859 859 858 858 858 858 858 858 858 858 858 857 857 857 857 857 857 856 856 856 856 855 855 855 855 855 855 856 856 856 856 856 856 856 856 855 855 855 854 854 853 852 852 852 851 851 850 850 850 850 850 849 849 849 850 850 850 849 849 850 850 849 850 850 850 850 849 849 849 849 849
860 860 860 859 860 860 860 860 860 860 860 860 860 860 860 860 859 859 859 859 859 859 859 859 859 858 858 858 858 858 858 858 858 858 858 858 858 858 858 857 857 858 858 858 858 858 858 858 857 857 856 856 855 854 854 853 852 852 852 852 851 851 851 851 851 851 851 851 851 851 851 851 851 851 851 851 851 851 851 850 850 850 850 849 848
861 860 860 860 860 860 861 861 861 861 861 861 861 860 860 860 860 860 860 860 860 860 860 860 860 860 859 859 859 859 860 860 861 861 861 860 860 860 859 859 859 859 859 860 860 860 859 859 859 858 857 857 856 855 854 854 853 853 853 853 853 852 852 853 853 853 853 853 853 853 853 853 852 852 852 852 852 852 851 851 851 850 850 849 848
861 861 861 860 861 861 861 861 861 861 861 861 861 861 861 860 860 860 860 860 861 861 861 860 861 861 861 861 861 861 862 862 862 862 862 862 861 861 861 861 861 861 861 861 861 861 860 860 859 859 858 858 857 856 855 855 855 854 855 855 854 854 854 854 854 854 854 854 854 854 854 854 854 854 853 853 853 852 852 852 851 851 850 850 849
861 861 861 861 861 861 861 861 861 861 861 861 861 861 861 861 861 861 861 861 862 863 862 862 862 863 863 862 862 863 863 863 864 863 863 863 863 862 862 862 862 862 862 862 862 862 861 861 860 860 859 859 859 858 857 856 856 856 856 856 856 856 856 855 855 856 856 856 856 856 855 855 855 854 854 853 853 853 853 852 852 851 851 850 850
861 861 861 861 861 861 861 861 861 862 862 862 861 861 862 861 861 861 862 862 863 864 864 863 864 864 864 864 864 864 864 864 865 865 865 864 864 864 864 864 864 863 863 863 863 863 862 862 862 861 860 860 860 859 859 858 858 858 857 857 857 857 857 857 857 856 856 857 857 856 856 856 855 855 854 854 854 853 853 852 852 852 851 851 850
862 862 862 862 862 862 862 862 862 862 863 862 862 862 862 862 862 862 862 863 863 864 864 864 864 865 865 865 865 864 864 865 865 865 865 865 865 865 865 865 864 864 864 864 864 864 863 863 863 862 862 861 861 861 860 860 859 859 859 859 858 858 857 857 857 857 857 857 857 856 856 856 855 855 854 854 854 853 852 852 852 852 851 851 850
862 862 862 862 862 862 862 862 862 862 862 863 862 862 861 862 862 862 862 863 863 864 865 865 865 865 865 866 866 865 865 865 865 865 865 866 866 865 865 865 865 865 865 865 865 864 864 864 863 863 863 862 862 862 861 861 860 860 860 859 859 859 858 858 858 858 857 857 857 856 856 855 855 855 854 854 854 854 853 852 852 851 851 851 850
862 862 862 862 862 862 863 863 863 863 862 863 863 862 862 862 862 862 862 863 864 864 865 865 865 865 865 866 866 866 865 865 865 865 865 865 865 865 865 865 865 865 865 865 865 865 865 864 864 864 863 863 863 862 862 861 861 860 860 860 859 859 859 858 858 858 858 857 857 857 856 856 855 855 855 854 854 854 853 853 852 852 851 851 851
862 862 862 862 862 862 862 862 863 863 862 862 862 862 862 862 863 862 863 863 864 864 864 865 865 866 865 865 865 865 865 865 865 865 865 865 865 865 865 865 865 866 866 865 865 865 865 865 865 864 864 864 863 862 862 861 861 860 860 859 859 859 858 858 858 857 857 857 857 856 856 856 856 855 855 854 854 854 853 853 852 852 852 852 851
862 862 862 862 862 862 862 862 862 862 862 862 862 862 861 862 862 862 863 863 863 864 864 864 864 865 865 865 865 865 865 865 864 864 864 865 865 865 865 865 865 865 865 865 865 865 865 865 865 864 864 863 863 862 862 861 861 860 860 859 859 858 858 857 857 857 857 857 857 856 856 856 855 855 855 854 854 854 853 853 852 852 852 852 851
862 862 862 862 862 862 862 862 861 861 861 862 862 861 861 861 861 861 862 862 862 863 863 863 863 863 864 864 864 864 864 864 864 864 864 864 864 864 864 864 864 865 865 865 865 865 865 865 865 864 864 863 863 862 862 861 860 860 859 858 858 857 857 857 857 856 856 856 856 856 856 855 855 855 855 855 854 854 853 853 853 852 852 852 851
862 862 862 861 861 861 861 861 861 861 861 861 861 861 860 860 860 860 861 861 861 861 861 862 862 862 862 863 864 864 864 864 863 863 863 864 864 864 864 864 864 864 865 865 865 865 865 865 864 864 864 863 863 862 862 861 860 860 859 858 857 856 856 856 856 856 856 856 856 856 856 855 855 855 854 854 854 854 853 853 853 852 852 852 852